Wetbulb
58.60 59.23 60.05 60.26 60.53 60.55 60.52 60.26 60.02 60.22 60.44 60.48 60.68 60.67 60.45 60.61 60.24 56.70 50.80 54.48 55.37 60.43 58.74 49.98 49.20 48.13 48.48 46.25 45.71 42.49 37.85 34.93 35.63 36.93 39.00 41.62 40.43 41.29 42.66 43.74 44.73 45.40 49.35 50.44 59.21
58.48 59.45 59.78 60.05 59.93 59.96 59.92 59.66 59.39 59.21 59.44 59.62 59.80 60.29 60.19 60.22 55.77 51.45 59.04 61.46 62.03 60.63 50.85 48.12 46.00 46.94 45.37 44.86 44.34 40.20 36.29 38.10 39.83 39.96 39.79 42.11 40.49 42.98 42.77 41.58 43.43 44.41 49.29 52.80 58.74
58.83 58.92 59.20 59.57 59.52 59.39 59.12 58.77 58.45 58.61 58.88 59.35 59.38 59.73 59.77 58.38 50.53 49.80 60.15 61.51 61.90 58.13 50.72 48.78 47.67 46.29 42.75 42.46 41.81 38.74 37.25 40.04 40.86 41.36 42.47 42.31 39.55 40.76 41.08 40.30 42.87 44.45 48.65 54.29 56.44
58.78 58.86 59.09 59.00 59.01 58.91 58.66 58.22 58.22 58.36 58.27 58.97 59.36 59.69 59.45 56.02 38.34 50.91 59.52 60.50 60.72 52.90 50.76 47.95 45.47 41.87 40.79 40.56 42.84 39.31 40.24 41.21 44.00 43.23 42.34 41.30 41.38 39.33 39.73 42.25 43.28 45.83 51.28 55.00 56.73
58.19 58.50 58.68 58.30 58.33 58.40 58.25 58.18 58.06 58.20 58.24 58.70 59.38 59.70 55.64 48.17 48.27 52.32 58.13 57.51 51.36 51.24 47.88 45.80 43.38 41.94 39.90 40.09 41.17 38.91 39.70 42.96 43.12 42.16 40.63 42.43 39.36 39.94 40.71 42.72 43.03 44.01 52.70 55.26 57.76
58.01 58.01 58.06 57.59 57.60 57.94 58.01 57.42 57.50 57.73 57.87 58.34 59.29 59.49 50.71 41.67 52.97 52.29 51.58 51.27 50.67 48.87 46.72 45.68 44.29 44.00 41.08 39.80 39.28 40.02 41.87 41.15 41.38 40.88 40.59 39.66 37.72 41.48 40.20 41.41 40.54 47.14 50.60 53.08 55.99
57.88 57.71 57.56 57.23 57.25 57.08 56.90 57.41 57.60 58.07 58.22 58.37 58.84 55.89 47.06 44.89 52.69 50.69 51.33 49.97 49.96 48.17 46.00 46.48 45.69 42.44 41.51 40.51 41.94 40.36 36.92 37.41 38.85 40.08 38.97 39.92 35.43 38.60 40.35 39.58 40.75 42.33 47.72 50.93 54.21
57.64 57.62 57.49 57.31 56.99 56.97 57.10 57.28 57.82 58.27 58.47 58.10 59.08 51.82 42.47 52.05 51.84 50.56 50.06 48.62 49.76 49.77 48.25 47.41 47.67 45.52 41.96 41.68 40.12 36.97 34.95 30.95 36.29 39.28 38.98 36.36 32.26 36.30 39.72 37.94 39.69 39.73 40.13 45.17 50.01
57.00 56.83 56.98 56.97 56.81 56.91 57.20 57.72 57.62 57.85 57.59 58.13 51.21 45.16 40.82 54.74 48.54 49.67 48.97 48.04 48.26 47.63 47.75 49.71 46.62 41.23 40.16 35.83 32.44 33.62 28.65 30.51 34.68 39.85 38.27 35.88 34.09 37.91 39.86 39.51 39.46 38.05 39.45 40.10 41.87
57.02 56.65 56.99 57.09 57.02 56.98 57.40 58.07 57.85 56.16 55.05 53.89 49.61 39.61 45.65 46.21 49.89 48.90 48.31 49.41 45.69 45.95 45.22 44.36 40.37 36.54 34.86 32.15 28.17 30.18 29.24 30.96 30.22 35.86 36.47 34.05 36.52 38.69 40.62 38.57 39.75 39.43 39.41 39.52 39.96
57.20 57.11 57.25 57.25 57.21 57.51 55.26 47.21 41.78 41.85 45.23 40.30 41.18 41.41 45.22 49.10 50.32 47.29 48.42 47.30 45.15 42.56 36.98 38.79 35.83 32.78 35.71 34.64 32.12 33.04 31.74 31.25 33.42 37.38 35.56 34.47 34.88 38.03 40.13 37.05 38.37 38.59 39.05 39.01 40.56
55.98 57.41 57.92 57.81 57.79 57.52 53.38 42.39 41.27 44.07 39.62 44.12 43.94 46.24 48.19 49.17 44.27 45.36 47.65 42.28 41.22 36.02 37.81 35.95 32.43 37.22 37.38 36.49 35.30 33.35 31.50 31.09 34.32 36.96 35.65 33.97 35.24 37.54 38.91 38.64 39.15 39.42 39.07 38.89 38.71
53.32 53.76 55.68 58.31 57.84 54.91 51.61 50.38 51.17 48.76 38.85 41.44 43.42 44.39 45.75 47.42 43.07 43.60 45.84 42.26 38.27 36.78 35.59 33.78 36.01 38.50 37.93 34.87 34.39 31.47 31.09 30.97 31.45 33.89 33.49 31.53 31.03 32.10 35.93 36.38 38.88 39.55 39.64 39.29 39.81
51.81 52.24 52.86 57.35 54.39 53.55 51.20 54.31 52.80 49.74 35.05 37.76 40.35 42.24 45.81 46.11 41.80 46.50 45.45 43.50 38.35 36.08 36.80 35.11 37.99 37.11 36.30 35.06 35.67 31.76 36.30 35.26 34.06 30.79 27.11 30.37 25.12 29.74 33.88 35.63 36.87 38.05 36.46 37.55 38.35
49.78 51.02 52.26 55.53 52.84 52.38 54.05 55.20 53.10 46.89 22.31 38.34 39.61 46.70 44.86 41.47 41.43 42.39 45.05 42.49 38.34 37.48 37.32 34.61 36.81 36.04 34.44 35.88 37.07 34.06 36.84 34.99 33.01 30.06 28.98 28.17 26.57 30.00 30.42 34.26 36.09 37.21 38.32 40.31 41.05
47.97 49.01 51.28 53.47 54.68 53.67 54.88 54.19 50.11 35.31 23.55 35.51 39.54 38.99 38.89 39.34 40.61 41.90 42.24 42.94 41.64 38.52 36.85 35.27 37.54 36.34 36.50 36.78 36.31 37.99 35.15 32.91 31.27 28.39 23.25 28.00 26.83 26.64 29.96 31.92 36.20 37.77 39.69 40.56 40.09
48.14 47.81 49.55 50.41 50.89 53.25 54.53 49.48 35.41 23.26 37.02 34.92 35.27 37.50 36.38 35.83 37.67 37.95 37.78 36.69 34.55 30.92 30.37 33.50 34.01 36.56 38.17 35.81 37.07 33.93 30.86 23.76 21.82 21.09 21.59 26.01 25.08 29.24 33.20 35.01 34.63 36.68 38.02 38.69 39.46
48.33 48.06 48.23 49.61 51.28 52.49 52.24 41.77 26.64 31.76 34.03 37.99 37.69 36.08 33.74 36.94 35.77 36.26 35.26 34.36 35.43 33.27 30.15 29.85 28.21 35.81 37.83 36.43 34.68 32.47 31.56 24.65 19.05 18.19 21.83 26.99 24.92 31.80 36.31 36.72 36.34 36.98 38.37 39.32 39.76
47.12 44.51 44.75 49.03 50.34 52.43 46.97 35.11 31.83 34.48 39.01 36.60 36.30 32.48 32.77 35.08 35.68 34.83 33.80 33.00 36.46 35.54 31.58 29.21 29.11 35.34 36.16 36.46 37.85 33.07 28.85 32.23 25.11 13.36 19.73 24.60 28.34 34.83 35.75 34.94 37.97 39.86 40.20 39.78 40.24
40.78 40.79 41.83 50.45 51.02 48.83 40.87 35.88 37.77 40.76 40.18 38.96 33.36 35.11 30.76 32.42 33.00 32.76 32.33 35.56 35.69 37.47 36.05 34.18 28.36 32.86 34.33 36.47 35.53 33.72 36.28 28.52 25.49 16.05 14.50 21.23 23.46 28.16 32.64 35.07 36.80 38.29 38.98 39.45 39.82
39.07 33.78 42.18 50.17 50.16 42.49 33.12 37.17 38.83 41.84 41.73 38.18 35.90 34.62 33.60 32.37 32.96 31.81 33.05 34.51 37.46 36.18 37.31 34.53 32.89 29.40 33.26 32.10 32.03 32.48 30.98 30.59 31.07 26.12 19.84 16.29 24.14 31.66 32.83 36.76 37.26 37.19 39.36 40.06 39.68
36.03 26.82 42.34 48.82 39.30 35.92 34.24 37.14 41.38 41.14 42.80 42.19 40.97 38.18 34.88 34.56 32.15 31.94 32.30 34.71 38.45 37.12 34.09 35.73 32.60 26.30 29.59 32.24 33.46 32.98 31.93 31.59 26.15 23.76 24.02 24.50 26.03 35.44 37.76 37.66 38.78 38.62 39.76 39.46 41.66
32.62 31.69 42.48 45.35 33.13 33.35 37.89 39.34 40.71 40.04 40.86 40.98 40.11 41.26 40.36 35.77 33.09 33.89 34.54 38.35 38.17 37.39 35.81 36.73 30.14 23.03 28.09 30.62 31.85 30.44 31.83 32.58 31.09 28.75 25.41 22.54 25.65 35.43 34.63 35.51 36.55 37.56 37.96 40.53 40.95
32.24 28.38 33.20 39.40 38.59 36.14 36.58 36.90 37.02 41.82 40.98 42.21 40.74 41.56 40.27 38.64 39.99 36.30 36.32 38.91 39.71 39.92 42.10 40.17 31.57 29.37 27.47 28.88 31.78 29.21 30.47 31.87 32.16 25.14 27.87 27.66 29.16 32.19 33.86 34.76 36.28 36.44 36.60 37.66 38.88
30.85 28.44 31.12 25.94 32.78 34.19 36.23 37.58 35.61 35.16 40.18 40.85 38.00 39.53 39.28 36.79 37.64 37.21 38.53 38.21 39.90 41.12 40.23 38.46 28.98 31.35 32.31 34.61 33.67 32.03 31.64 32.80 29.86 32.52 28.05 31.17 30.15 33.09 35.60 36.95 37.26 37.59 38.29 38.90 39.10
28.94 27.45 30.79 28.83 30.24 33.48 33.31 32.57 34.89 35.69 37.20 35.94 35.31 38.27 39.75 36.24 37.39 36.56 38.11 38.62 37.74 38.93 38.73 38.15 30.73 32.93 30.71 34.19 34.26 31.28 33.97 33.49 32.16 31.81 32.52 32.10 33.02 38.32 39.37 37.55 38.54 38.33 38.64 37.86 37.64
35.87 33.71 31.03 28.93 27.70 30.95 31.55 31.27 32.74 36.16 36.62 38.02 38.25 36.86 36.93 37.13 39.78 40.20 42.09 41.15 40.85 38.56 37.70 36.75 33.45 29.62 27.84 32.38 32.88 29.58 31.87 33.07 33.16 34.90 34.59 31.31 35.34 36.72 35.64 36.58 37.08 36.82 36.63 36.21 36.73
MSLP
1012.41 1012.50 1012.86 1012.96 1013.06 1013.28 1013.43 1013.27 1013.23 1013.47 1013.51 1013.63 1013.73 1013.84 1013.59 1013.89 1013.75 1013.51 1013.45 1012.50 1012.16 1012.43 1012.63 1012.64 1012.86 1012.91 1013.14 1013.81 1014.21 1014.69 1015.88 1016.71 1016.30 1016.06 1015.42 1015.44 1015.63 1015.65 1015.61 1016.03 1016.29 1016.53 1016.92 1016.90 1016.99
1012.24 1012.43 1012.88 1012.83 1012.98 1013.09 1013.22 1013.50 1013.58 1013.44 1013.48 1013.58 1013.53 1013.68 1013.56 1013.69 1013.63 1013.21 1012.39 1012.17 1012.26 1012.51 1012.71 1012.66 1013.03 1013.17 1013.76 1014.10 1014.55 1014.96 1016.01 1016.03 1015.44 1015.12 1015.06 1015.17 1015.37 1015.59 1015.86 1016.07 1016.39 1016.59 1016.81 1017.00 1017.40
1011.88 1012.20 1012.74 1012.86 1013.01 1012.96 1013.04 1013.19 1013.28 1013.41 1013.35 1013.68 1013.65 1013.81 1013.52 1013.55 1013.39 1012.26 1011.91 1012.14 1012.27 1012.57 1012.54 1012.45 1012.87 1013.21 1013.91 1014.28 1014.62 1015.00 1015.33 1015.48 1015.24 1014.99 1014.92 1015.18 1015.52 1015.62 1015.85 1016.34 1016.07 1016.21 1016.83 1017.35 1017.77
1011.66 1012.23 1012.51 1012.75 1012.83 1013.27 1013.27 1013.29 1013.26 1013.52 1013.48 1013.47 1013.63 1013.31 1013.29 1013.39 1012.93 1011.85 1012.07 1012.11 1012.32 1012.62 1012.52 1012.76 1013.16 1013.67 1014.15 1014.43 1014.59 1015.00 1015.06 1015.08 1015.16 1014.97 1015.10 1015.34 1015.56 1015.73 1016.06 1015.49 1015.29 1015.68 1016.35 1017.27 1017.81
1011.51 1012.07 1012.51 1012.70 1012.85 1013.07 1013.00 1013.16 1013.22 1013.43 1013.37 1013.50 1013.40 1013.01 1013.35 1013.25 1012.42 1011.97 1012.01 1012.21 1012.40 1012.51 1012.76 1012.90 1013.33 1013.81 1014.27 1014.43 1014.73 1014.92 1015.15 1015.15 1015.24 1015.30 1015.35 1015.59 1015.74 1016.17 1015.87 1015.63 1015.77 1016.07 1016.67 1017.13 1017.45
1011.40 1011.81 1012.19 1012.27 1012.62 1012.84 1013.01 1013.11 1013.13 1013.15 1013.20 1013.31 1013.10 1012.96 1013.24 1012.78 1011.82 1011.84 1012.07 1012.25 1012.52 1012.47 1012.88 1012.92 1013.15 1013.56 1014.27 1014.60 1014.90 1015.05 1015.22 1015.56 1015.54 1015.67 1015.85 1015.87 1016.12 1016.00 1015.76 1015.65 1016.17 1016.65 1016.93 1017.12 1017.33
1011.35 1011.79 1012.12 1012.18 1012.35 1012.65 1012.62 1013.10 1013.03 1013.31 1013.22 1013.09 1012.66 1012.63 1012.79 1012.11 1011.97 1012.02 1012.15 1012.21 1012.47 1012.38 1012.84 1012.99 1013.14 1013.60 1014.32 1015.00 1015.20 1015.42 1015.80 1015.96 1015.82 1016.09 1016.13 1016.19 1016.46 1016.02 1015.75 1016.29 1016.63 1017.08 1017.17 1017.39 1017.18
1011.18 1011.65 1012.07 1012.21 1012.32 1012.56 1012.47 1012.25 1012.68 1012.90 1012.74 1012.77 1012.59 1012.67 1012.62 1012.20 1012.13 1012.04 1012.08 1012.30 1012.52 1012.53 1012.64 1013.05 1013.18 1013.97 1014.70 1015.44 1015.84 1016.21 1016.66 1016.87 1016.18 1016.38 1016.54 1016.60 1016.38 1015.88 1015.77 1016.37 1016.97 1017.32 1017.60 1017.52 1017.36
1011.06 1011.48 1011.97 1012.13 1012.27 1012.46 1012.55 1012.91 1012.62 1012.46 1012.29 1012.10 1012.51 1012.58 1012.58 1012.09 1011.89 1012.14 1012.02 1012.52 1012.68 1012.92 1013.04 1013.19 1013.68 1015.05 1015.52 1016.41 1017.37 1017.54 1017.34 1017.36 1016.55 1016.47 1016.84 1016.91 1016.83 1016.13 1016.06 1016.55 1017.20 1017.24 1017.57 1017.50 1017.07
1010.97 1011.44 1011.86 1011.97 1012.20 1012.26 1012.21 1012.54 1012.17 1012.32 1012.24 1012.29 1012.49 1012.90 1012.58 1012.26 1012.23 1012.11 1012.26 1012.47 1013.22 1013.18 1013.69 1014.08 1015.30 1015.86 1016.69 1017.11 1017.57 1017.66 1017.59 1017.29 1016.89 1016.83 1017.16 1017.38 1016.99 1016.67 1016.39 1016.81 1017.12 1017.04 1016.89 1017.10 1016.83
1010.90 1011.17 1011.60 1011.76 1011.95 1011.98 1012.21 1012.39 1012.77 1012.63 1012.14 1012.15 1012.30 1012.13 1012.18 1012.36 1012.29 1012.35 1012.56 1012.75 1013.32 1013.67 1014.60 1015.21 1015.99 1016.13 1016.55 1016.75 1016.93 1016.97 1017.33 1017.21 1017.05 1017.07 1017.46 1017.65 1017.67 1016.90 1016.27 1016.44 1016.66 1016.75 1016.34 1016.17 1015.91
1011.03 1011.03 1011.09 1011.49 1011.53 1011.75 1011.96 1011.84 1011.70 1011.84 1012.51 1012.33 1012.04 1012.14 1012.39 1012.15 1012.63 1012.73 1012.74 1012.98 1013.66 1014.66 1015.20 1015.99 1016.03 1016.01 1016.43 1016.78 1016.95 1017.05 1017.35 1017.45 1017.35 1017.51 1018.02 1018.06 1017.87 1017.03 1016.39 1015.77 1015.82 1015.62 1015.69 1015.41 1015.15
1011.25 1011.25 1011.22 1011.22 1011.50 1011.87 1011.95 1011.90 1011.69 1011.80 1012.03 1012.18 1011.95 1012.02 1012.19 1012.27 1012.65 1012.86 1012.79 1013.35 1014.04 1015.10 1015.39 1015.68 1015.77 1015.82 1016.24 1016.91 1017.21 1017.29 1017.57 1017.59 1017.95 1018.25 1018.63 1018.80 1018.26 1017.32 1015.97 1015.46 1015.19 1014.85 1014.98 1015.02 1014.89
1011.54 1011.35 1011.35 1011.26 1012.06 1011.77 1011.99 1011.95 1011.66 1011.75 1012.36 1012.40 1012.25 1012.00 1012.31 1012.30 1013.04 1013.08 1012.91 1013.46 1014.39 1014.97 1015.66 1015.69 1015.78 1016.01 1016.35 1016.63 1017.07 1017.60 1017.37 1017.67 1018.49 1019.27 1019.98 1019.88 1019.61 1017.86 1016.73 1015.97 1015.25 1014.77 1014.83 1014.67 1014.57
1011.80 1011.32 1011.23 1011.23 1011.25 1011.58 1011.99 1011.55 1011.80 1012.06 1012.67 1012.06 1012.18 1012.16 1012.19 1012.77 1013.33 1013.55 1013.40 1013.75 1014.27 1014.85 1015.51 1015.96 1015.95 1016.13 1016.45 1016.41 1016.85 1017.45 1017.77 1018.62 1019.47 1020.28 1020.73 1020.95 1020.77 1017.89 1017.26 1016.19 1015.40 1015.02 1014.83 1014.84 1014.82
1011.94 1011.28 1011.22 1011.37 1011.26 1011.74 1011.70 1011.61 1012.10 1013.13 1012.34 1012.47 1012.19 1012.23 1012.79 1013.30 1013.61 1013.74 1013.75 1014.10 1014.14 1015.00 1015.70 1016.19 1016.06 1016.16 1016.31 1016.84 1016.98 1017.61 1018.48 1019.73 1020.91 1021.59 1021.97 1021.31 1020.90 1018.64 1017.38 1016.22 1015.59 1015.30 1015.23 1015.38 1015.31
1012.07 1011.92 1011.55 1012.03 1011.84 1011.88 1011.62 1011.81 1012.91 1012.39 1011.73 1012.42 1012.40 1012.59 1012.87 1013.79 1014.27 1014.14 1014.35 1014.68 1014.34 1015.67 1016.42 1016.68 1016.67 1016.48 1016.59 1017.10 1017.45 1017.86 1019.15 1021.01 1022.43 1022.92 1022.81 1021.98 1021.38 1018.78 1016.57 1016.17 1015.81 1015.85 1015.86 1015.96 1015.83
1011.69 1011.70 1011.61 1011.64 1012.06 1011.61 1011.48 1012.41 1012.53 1011.33 1011.66 1011.82 1012.06 1012.72 1013.28 1013.66 1014.29 1014.57 1014.68 1014.89 1014.66 1014.79 1016.21 1016.65 1017.18 1016.69 1016.60 1016.56 1017.22 1018.26 1018.88 1020.52 1022.15 1023.54 1023.13 1022.23 1020.55 1017.49 1016.14 1016.08 1015.87 1015.92 1016.10 1016.45 1016.46
1012.33 1012.57 1012.64 1012.28 1012.15 1011.72 1011.99 1012.48 1011.14 1010.95 1010.80 1011.35 1012.25 1012.94 1013.68 1013.55 1013.83 1014.65 1014.73 1014.61 1014.43 1014.32 1014.87 1016.21 1016.58 1016.58 1016.75 1016.57 1016.83 1018.43 1019.12 1020.06 1021.87 1024.18 1023.47 1021.48 1019.79 1017.11 1016.47 1016.61 1016.36 1016.35 1016.45 1016.64 1016.73
1012.46 1012.74 1012.81 1012.08 1011.76 1012.41 1012.32 1011.83 1011.54 1011.05 1010.68 1010.73 1011.25 1012.06 1012.93 1013.46 1014.01 1014.35 1014.68 1013.76 1013.91 1013.90 1013.91 1015.00 1016.53 1017.16 1017.10 1017.15 1017.46 1017.47 1018.35 1019.91 1021.56 1023.15 1023.33 1021.58 1020.16 1018.09 1017.26 1017.34 1017.11 1017.12 1016.86 1016.86 1016.90
1012.86 1013.00 1012.99 1012.38 1012.36 1012.23 1011.85 1011.36 1011.40 1010.94 1010.67 1010.61 1010.63 1011.55 1012.30 1012.97 1013.49 1013.83 1013.65 1013.52 1013.28 1013.79 1014.03 1014.67 1015.59 1017.85 1017.65 1017.31 1017.35 1018.03 1018.27 1019.29 1020.29 1021.52 1022.04 1021.46 1019.90 1017.56 1017.60 1017.55 1017.41 1017.43 1016.98 1016.85 1017.11
1013.39 1013.61 1012.82 1012.56 1012.49 1012.71 1012.09 1011.85 1011.17 1010.74 1010.74 1010.40 1010.37 1010.81 1011.53 1012.24 1012.99 1013.41 1013.21 1012.88 1012.71 1012.97 1014.02 1014.47 1015.64 1017.44 1017.53 1017.36 1017.37 1017.29 1017.72 1018.48 1019.94 1021.28 1021.44 1020.81 1018.95 1017.57 1017.59 1017.37 1017.46 1017.65 1017.45 1017.04 1016.97
1013.59 1013.59 1012.91 1012.65 1012.35 1012.41 1011.94 1011.53 1011.31 1011.20 1010.93 1010.59 1010.64 1010.59 1010.98 1011.79 1012.65 1012.92 1012.87 1012.80 1012.88 1013.06 1013.25 1014.23 1015.56 1017.33 1018.05 1018.23 1018.06 1017.85 1018.08 1018.32 1019.03 1019.91 1020.16 1020.47 1019.00 1017.98 1017.98 1017.92 1017.95 1017.93 1017.87 1017.71 1017.53
1014.11 1014.17 1013.79 1013.25 1012.49 1012.04 1011.72 1011.59 1011.47 1011.54 1011.23 1010.83 1010.79 1010.91 1011.14 1011.86 1012.14 1012.88 1013.07 1013.21 1013.20 1013.46 1013.45 1013.76 1015.24 1015.93 1016.35 1016.72 1017.22 1018.05 1018.02 1018.35 1018.88 1019.68 1019.03 1018.74 1018.81 1018.29 1018.07 1017.83 1017.99 1017.84 1017.99 1018.11 1018.38
1014.22 1013.99 1013.70 1013.42 1012.76 1012.16 1011.69 1011.66 1011.47 1011.51 1011.37 1011.50 1011.54 1011.30 1011.47 1012.25 1012.98 1012.90 1013.27 1013.60 1013.83 1013.95 1014.11 1014.49 1015.79 1016.36 1016.82 1016.96 1017.26 1017.63 1017.95 1018.30 1018.55 1018.25 1018.86 1017.94 1018.41 1017.76 1017.44 1017.76 1017.55 1017.81 1018.14 1018.50 1018.91
1014.00 1014.15 1013.85 1013.57 1012.80 1012.57 1012.21 1011.82 1011.50 1011.41 1011.18 1011.35 1011.47 1011.75 1012.18 1012.76 1012.80 1013.23 1013.19 1013.59 1013.96 1014.51 1014.74 1015.14 1016.56 1017.04 1017.69 1017.72 1018.10 1018.20 1018.18 1018.22 1018.54 1018.70 1018.65 1018.59 1018.29 1017.76 1017.43 1017.68 1017.83 1018.29 1018.86 1019.29 1019.54
1013.58 1013.98 1014.27 1013.96 1013.36 1013.08 1012.18 1012.00 1011.51 1011.48 1011.62 1011.28 1011.55 1012.27 1012.87 1012.93 1012.84 1013.32 1013.63 1014.06 1014.09 1014.90 1015.39 1015.88 1017.02 1018.00 1018.61 1018.75 1019.11 1019.03 1017.29 1017.75 1018.18 1018.11 1018.18 1018.06 1017.48 1017.51 1017.98 1018.35 1018.73 1019.08 1019.22 1019.59 1019.91
Wind_Speed
10 10 10 9 8 8 7 6 5 6 6 6 6 6 3 4 3 3 5 5 3 5 3 5 1 3 3 3 2 3 6 2 4 6 4 5 3 2 2 5 1 3 6 4 9
12 11 10 9 8 7 7 7 6 4 4 6 5 6 4 4 3 4 2 3 2 2 4 6 5 3 3 1 2 6 5 8 3 5 5 5 3 7 4 4 1 1 0 3 9
12 10 11 9 9 7 5 5 4 4 3 6 5 6 4 4 2 6 4 3 2 1 2 3 5 4 3 1 0 3 5 5 2 1 4 4 1 2 7 3 7 9 6 7 6
11 10 9 9 9 9 7 5 4 5 2 6 6 3 3 2 6 1 4 3 3 1 3 5 5 4 4 5 2 3 1 5 5 1 4 6 3 2 5 7 4 9 8 9 11
12 10 9 10 9 8 6 5 3 3 3 5 5 3 3 2 4 3 5 4 4 4 4 5 5 5 6 5 4 3 3 3 3 3 2 3 2 4 7 7 3 5 9 15 14
12 9 8 8 7 7 6 4 2 3 4 5 3 3 2 6 2 4 6 5 3 4 4 4 7 5 5 4 4 4 4 3 1 2 2 3 2 2 3 3 3 7 11 11 12
13 11 9 8 6 5 3 4 2 4 4 5 3 2 2 3 1 3 6 4 4 3 5 1 4 4 4 5 3 4 4 2 2 2 2 3 4 8 5 3 5 7 8 9 13
13 11 9 9 6 5 3 2 4 6 5 3 3 3 4 1 1 4 3 4 3 3 4 3 4 7 4 3 7 5 6 2 1 4 1 3 7 3 3 2 6 7 8 9 11
12 11 9 8 7 5 4 6 5 4 2 2 2 2 2 1 3 2 3 6 4 3 4 4 6 4 5 6 5 6 3 3 5 6 2 3 6 5 3 5 7 5 8 9 10
11 10 10 9 8 6 4 4 1 2 1 2 1 2 2 5 3 3 2 5 4 5 4 7 5 5 4 4 6 6 4 3 3 2 1 2 10 7 8 3 10 10 9 9 10
11 9 9 8 7 4 4 5 5 4 3 4 3 2 3 2 1 3 1 5 3 8 5 2 5 7 10 6 3 6 4 4 0 1 2 5 7 12 11 4 10 10 11 10 13
9 6 8 8 6 4 3 3 3 3 5 2 2 3 1 3 5 1 2 5 4 5 4 5 4 6 6 4 4 4 4 1 1 1 1 5 11 11 11 8 9 9 10 11 7
10 10 4 8 7 2 2 1 2 2 5 3 2 3 3 3 4 8 6 3 5 6 5 7 2 9 6 4 5 2 4 3 3 2 3 5 10 6 6 3 5 8 8 7 9
8 9 8 5 5 4 3 4 4 1 4 4 5 4 3 4 3 1 0 4 2 7 8 3 2 7 5 4 6 4 5 5 4 4 4 2 7 6 6 11 8 10 7 9 8
7 9 10 3 4 4 1 2 2 3 4 4 3 1 2 5 5 1 1 2 9 7 7 6 7 7 4 5 5 4 4 5 3 4 3 4 2 9 4 7 8 9 5 6 8
8 11 11 2 2 1 3 1 3 6 8 5 4 6 7 2 3 3 2 3 4 5 5 2 1 2 5 3 2 9 7 8 5 3 1 6 6 7 4 2 2 5 6 7 8
8 8 5 3 3 3 1 3 4 6 2 7 6 6 4 6 4 3 7 5 8 7 4 1 1 1 3 7 4 4 7 3 4 3 6 1 2 10 6 5 3 6 6 8 8
9 5 5 1 3 3 2 4 4 6 7 3 5 9 7 7 1 4 8 7 3 6 5 8 3 8 4 6 9 6 7 8 8 5 4 2 6 8 6 4 2 3 3 4 7
3 2 2 2 4 0 4 10 10 6 8 9 6 6 4 4 7 4 7 7 8 9 8 6 4 1 1 3 6 5 4 5 8 3 4 4 6 12 5 6 6 7 7 8 8
2 2 2 1 3 2 3 11 5 2 2 4 7 7 7 8 6 7 9 6 6 9 2 8 4 1 1 3 3 4 8 4 4 2 3 4 4 6 3 6 4 7 6 5 5
3 2 1 2 1 2 3 8 4 4 2 5 5 6 6 9 7 6 10 2 6 8 5 6 5 1 3 6 9 3 3 4 5 5 6 1 7 6 5 8 9 6 6 5 4
2 1 1 2 3 3 6 7 3 3 3 2 2 4 8 8 6 6 10 6 7 9 11 7 6 5 6 1 1 2 6 6 6 5 3 4 7 4 9 8 9 5 6 5 3
1 2 2 2 4 4 5 4 4 3 3 4 2 1 2 6 5 4 6 0 6 7 10 8 3 4 4 3 2 4 4 4 5 4 8 7 6 2 4 5 4 5 1 3 5
2 2 2 2 1 3 5 6 6 4 2 1 3 2 4 3 4 6 4 3 1 3 7 7 4 8 12 5 7 6 6 6 6 4 5 9 5 5 9 5 2 2 2 4 5
2 3 2 4 6 2 4 8 7 6 5 4 2 5 4 4 3 4 3 3 4 4 4 4 5 3 3 5 5 4 6 8 11 13 9 8 10 7 8 5 3 2 5 7 7
4 2 2 1 1 6 3 8 13 6 9 7 6 7 14 7 5 4 7 2 3 2 3 1 4 3 1 2 2 2 7 7 3 1 5 3 9 9 8 4 7 6 6 5 4
2 1 1 1 2 6 7 3 6 8 3 2 8 6 6 5 8 6 4 4 6 4 3 5 5 3 4 5 5 6 12 10 5 6 7 9 5 5 3 0 2 4 6 5 4
Wind_Direction
206 202 196 190 193 190 201 209 204 202 208 231 237 247 259 266 196 120 209 216 135 149 145 122 89 62 63 83 67 126 68 150 212 151 222 150 139 206 100 120 60 182 155 248 136
197 196 191 181 194 192 190 194 207 214 209 244 248 266 268 244 205 209 213 137 120 164 140 139 137 100 56 75 23 88 109 206 212 182 179 174 156 164 147 135 221 275 69 80 127
193 194 188 180 180 190 194 210 188 233 241 246 248 249 270 217 151 232 149 148 147 235 141 115 110 103 96 83 113 159 164 191 208 152 132 146 340 200 125 244 214 197 170 152 147
177 188 182 180 177 182 181 209 195 237 225 268 262 280 285 222 176 134 164 139 141 130 111 106 94 96 122 153 156 108 215 168 184 125 115 156 125 227 201 219 231 209 161 164 170
175 177 176 181 179 185 188 175 214 244 265 273 288 355 158 200 240 152 134 132 126 132 158 132 125 132 153 160 115 123 173 110 124 114 113 118 183 237 251 245 38 130 157 178 190
161 166 181 182 192 190 178 204 194 277 289 285 315 9 204 182 86 130 131 117 157 129 153 140 167 179 105 142 135 167 118 128 156 163 111 145 237 96 296 258 192 161 191 191 193
160 169 187 189 204 215 200 221 227 247 276 291 348 112 245 191 24 143 145 143 156 140 131 122 136 88 121 111 147 103 85 23 186 233 159 147 270 231 258 313 221 226 218 216 216
165 171 190 189 191 204 243 306 272 270 285 284 349 110 205 260 208 127 132 80 94 54 109 130 98 103 76 115 26 77 53 86 271 148 299 102 265 265 352 226 255 236 241 238 241
164 173 192 193 190 194 197 243 264 268 233 327 96 143 224 344 107 168 126 137 96 58 56 73 65 86 51 88 39 11 170 208 309 191 134 124 259 265 156 35 306 250 241 235 251
170 177 185 187 189 192 236 224 239 243 76 128 305 87 153 208 153 132 70 110 119 103 59 54 52 82 54 97 196 184 185 222 231 213 169 141 266 280 279 274 270 279 253 243 242
173 178 185 183 182 166 136 103 60 13 33 172 230 131 121 123 51 51 84 105 86 61 132 24 105 185 196 171 134 135 143 157 199 349 194 249 263 278 279 272 272 260 263 252 248
77 131 177 181 169 141 105 144 188 164 163 193 134 81 147 188 104 114 136 107 114 125 121 49 216 200 124 151 116 126 121 197 16 81 160 344 282 261 271 251 233 248 262 255 265
66 56 42 172 154 111 174 108 20 315 115 206 168 147 181 148 134 186 129 120 112 132 162 149 225 138 133 139 146 176 163 179 170 45 45 345 298 321 297 266 272 258 258 282 260
14 47 22 171 146 165 159 316 327 350 87 200 215 202 130 142 65 360 297 138 133 160 147 182 135 144 138 154 134 174 193 134 138 93 235 20 283 308 309 304 290 302 309 295 297
357 28 1 332 135 146 148 331 299 62 158 183 155 116 104 141 145 27 331 38 156 145 116 227 164 140 131 183 163 183 103 118 90 96 63 321 61 272 330 291 303 326 6 23 18
3 18 6 339 70 66 287 107 77 70 235 163 129 159 115 77 43 90 126 20 132 99 52 116 359 140 169 91 112 150 81 54 54 81 343 234 158 285 224 213 352 1 0 11 7
356 3 58 287 129 290 275 82 87 163 210 183 172 159 114 147 122 136 163 180 145 113 155 94 85 352 138 83 40 83 80 10 352 9 221 44 106 249 276 273 235 306 346 355 2
7 5 9 293 292 307 108 78 167 192 190 133 120 118 160 147 132 139 133 185 257 97 123 149 223 169 195 168 167 183 153 157 196 198 256 91 235 248 205 319 243 18 22 28 30
63 25 316 292 243 288 153 192 209 192 150 135 77 125 168 201 133 149 186 188 192 182 142 139 235 73 90 132 133 185 178 157 104 23 58 225 289 306 86 54 65 55 39 16 20
37 90 249 219 39 69 191 200 232 206 121 171 144 159 167 180 140 164 170 188 198 187 190 196 122 30 124 113 38 148 162 82 7 141 256 286 270 228 109 96 89 44 42 40 57
47 82 156 152 76 48 205 200 201 229 220 182 149 143 174 174 160 193 192 257 195 181 147 142 109 194 121 206 163 138 168 68 120 143 168 204 257 225 140 147 101 41 24 33 35
80 205 353 211 165 142 215 171 198 221 204 213 110 119 159 160 148 187 195 223 175 145 169 189 125 157 196 307 261 152 175 148 144 213 240 150 266 20 135 119 106 69 12 1 348
146 262 331 269 182 186 170 199 174 174 230 157 150 134 123 155 138 174 176 237 154 154 160 179 197 83 18 11 357 197 194 140 109 83 202 139 256 336 113 122 121 120 73 329 2
121 187 328 235 331 178 155 185 149 185 245 19 142 55 119 113 33 162 136 41 146 114 78 95 120 179 204 179 142 184 185 173 154 166 186 218 150 209 234 271 306 93 341 349 35
116 238 246 184 216 202 181 180 158 179 177 187 342 167 106 142 148 144 115 120 44 355 64 103 130 117 77 112 110 149 166 174 195 217 185 231 197 220 224 273 295 3 50 68 36
147 173 353 280 266 159 177 193 187 173 161 185 177 204 184 201 181 172 129 129 137 25 92 21 110 95 86 95 63 192 201 194 205 188 282 179 260 216 266 330 345 17 98 81 55
162 85 127 23 146 187 205 202 199 149 204 193 177 136 183 162 160 161 173 161 148 171 112 103 121 115 184 136 82 282 223 202 178 185 154 224 214 163 165 129 120 102 83 66 27